This is the latest recevied weather packets stored in our database for station/object SP1BMW-13. If no packets are shown the sender has not sent any weather packets the latest 10 day(s).
| Time | Temp. | Humidity | Pressure | Rain* | Wind** | Luminosity | Snow |
|---|---|---|---|---|---|---|---|
| 1777710265 | 23.33° C | 33% | 1021.6 hPa | 0 mm | 0.89 m/s, 300° | 519 W/m² | - |
| 1777710206 | 23.33° C | 32% | 1021.4 hPa | 0 mm | 2.24 m/s, 253° | 518 W/m² | - |
| 1777710145 | 23.33° C | 33% | 1021.4 hPa | 0 mm | 0.89 m/s, 154° | 517 W/m² | - |
| 1777710085 | 23.33° C | 33% | 1021.5 hPa | 0 mm | 0.89 m/s, 114° | 515 W/m² | - |
| 1777710025 | 23.33° C | 33% | 1021.4 hPa | 0 mm | 0.89 m/s, 126° | 512 W/m² | - |
| 1777709965 | 23.33° C | 33% | 1021.5 hPa | 0 mm | 0.45 m/s, 328° | 510 W/m² | - |
| 1777709905 | 23.33° C | 34% | 1021.7 hPa | 0 mm | 0.45 m/s, 197° | 508 W/m² | - |
| 1777709844 | 23.33° C | 32% | 1021.6 hPa | 0 mm | 0.89 m/s, 175° | 506 W/m² | - |
| 1777709785 | 23.33° C | 32% | 1021.6 hPa | 0 mm | 0.89 m/s, 342° | 505 W/m² | - |
| 1777709725 | 23.33° C | 33% | 1021.5 hPa | 0 mm | 0.89 m/s, 162° | 503 W/m² | - |
| 1777709665 | 23.33° C | 35% | 1021.7 hPa | 0 mm | 0.45 m/s, 339° | 501 W/m² | - |
| 1777709605 | 23.33° C | 33% | 1021.8 hPa | 0 mm | 0.45 m/s, 200° | 499 W/m² | - |
| 1777709544 | 23.33° C | 34% | 1021.6 hPa | 0 mm | 0 m/s | 494 W/m² | - |
| 1777709484 | 23.33° C | 33% | 1021.6 hPa | 0 mm | 0.89 m/s, 224° | 493 W/m² | - |
| 1777709424 | 23.33° C | 34% | 1021.7 hPa | 0 mm | 0.45 m/s, 339° | 491 W/m² | - |
| 1777709364 | 23.33° C | 35% | 1021.6 hPa | 0 mm | 0.45 m/s, 159° | 488 W/m² | - |
| 1777709304 | 23.33° C | 33% | 1021.6 hPa | 0 mm | 0.45 m/s, 276° | 485 W/m² | - |
| 1777709244 | 23.33° C | 32% | 1021.5 hPa | 0 mm | 1.79 m/s, 251° | 482 W/m² | - |
| 1777709184 | 23.33° C | 33% | 1021.7 hPa | 0 mm | 0.89 m/s, 129° | 480 W/m² | - |
| 1777709124 | 23.33° C | 33% | 1021.7 hPa | 0 mm | 1.34 m/s, 222° | 477 W/m² | - |
| 1777709065 | 23.33° C | 33% | 1021.5 hPa | 0 mm | 0.89 m/s, 194° | 473 W/m² | - |
| 1777709005 | 23.33° C | 33% | 1021.7 hPa | 0 mm | 0.89 m/s, 189° | 472 W/m² | - |
| 1777708945 | 22.78° C | 33% | 1021.8 hPa | 0 mm | 0.45 m/s, 295° | 470 W/m² | - |
| 1777708885 | 22.78° C | 36% | 1021.6 hPa | 0 mm | 0.45 m/s, 323° | 468 W/m² | - |
| 1777708838 | 22.78° C | 36% | 1021.8 hPa | 0 mm | 0 m/s | 466 W/m² | - |
* Rain latest hour (hover to see other rain measurements)
** Current wind speed in m/s (hover to see current wind gust speed)